Location: Pedholt
(56.0260°N, 10.2097°E)
Time: 13:25:56
(UTC+00:00)

Tiros 1 - Pass Details

Date: 08 August 2021
Orbit: 630 x 663 km, 48.4° (Epoch: 23 September)

Event Time Altitude Azimuth Distance (km) Brightness Sun altitude
Rises 17:40:56 0° 256° (WSW) 2,990 11.8 10.9°
Reaches altitude 10° 17:43:27 10° 247° (WSW) 2,074 10.8 10.6°
Maximum altitude 17:47:43 33° 184° (S) 1,107 8.4 10.0°
Drops below altitude 10° 17:51:57 10° 121° (ESE) 2,057 9.2 9.4°
Sets 17:54:27 0° 112° (ESE) 2,961 9.9 9.1°
